| time (UTC) | temp F | wind direction | speed MPH | gust MPH | rain 1hr in | rain 24hr in | rain mn in | humidity % | barometer mb |
| 20260902181022 | 74 | 184 | 8.0 | 17.0 | 0.00 | 0.00 | 0.00 | 37 | 1023.7 |
| 20260902180518 | 75 | 180 | 11.0 | 19.0 | 0.00 | 0.00 | 0.00 | 36 | 1023.8 |
| 20260902180040 | 75 | 181 | 13.0 | 19.0 | 0.00 | 0.00 | 0.00 | 36 | 1023.8 |
| 20260902175520 | 75 | 223 | 7.0 | 19.0 | 0.00 | 0.00 | 0.00 | 37 | 1023.8 |
| 20260902175018 | 76 | 229 | 12.0 | 19.0 | 0.00 | 0.00 | 0.00 | 36 | 1024.0 |
| 20260902174535 | 75 | 228 | 11.0 | 18.0 | 0.00 | 0.00 | 0.00 | 39 | 1024.0 |
| 20260902174018 | 74 | 215 | 12.0 | 18.0 | 0.00 | 0.00 | 0.00 | 39 | 1024.1 |
| 20260902173520 | 74 | 240 | 12.0 | 18.0 | 0.00 | 0.00 | 0.00 | 40 | 1024.1 |
| 20260902173040 | 73 | 221 | 10.0 | 17.0 | 0.00 | 0.00 | 0.00 | 41 | 1024.2 |
| 20260902172517 | 73 | 221 | 10.0 | 15.0 | 0.00 | 0.00 | 0.00 | 42 | 1024.3 |
| 20260902172018 | 72 | 217 | 10.0 | 18.0 | 0.00 | 0.00 | 0.00 | 42 | 1024.3 |
| 20260902171535 | 71 | 221 | 11.0 | 18.0 | 0.00 | 0.00 | 0.00 | 43 | 1024.3 |
| 20260902171018 | 72 | 244 | 10.0 | 16.0 | 0.00 | 0.00 | 0.00 | 41 | 1024.3 |
| 20260902170521 | 71 | 269 | 8.0 | 17.0 | 0.00 | 0.00 | 0.00 | 43 | 1024.3 |
| 20260902170044 | 71 | 259 | 11.0 | 17.0 | 0.00 | 0.00 | 0.00 | 43 | 1024.5 |
| 20260902165518 | 71 | 259 | 11.0 | 18.0 | 0.00 | 0.00 | 0.00 | 43 | 1024.5 |
| 20260902165021 | 71 | 262 | 12.0 | 18.0 | 0.00 | 0.00 | 0.00 | 42 | 1024.5 |
| 20260902164538 | 71 | 266 | 10.0 | 17.0 | 0.00 | 0.00 | 0.00 | 41 | 1024.3 |
| 20260902164018 | 71 | 274 | 11.0 | 16.0 | 0.00 | 0.00 | 0.00 | 41 | 1024.3 |
| 20260902163517 | 71 | 256 | 10.0 | 19.0 | 0.00 | 0.00 | 0.00 | 41 | 1024.5 |
| 20260902163043 | 72 | 239 | 10.0 | 19.0 | 0.00 | 0.00 | 0.00 | 39 | 1024.3 |
| 20260902162516 | 73 | 227 | 10.0 | 19.0 | 0.00 | 0.00 | 0.00 | 39 | 1024.3 |
| 20260902162020 | 71 | 216 | 10.0 | 18.0 | 0.00 | 0.00 | 0.00 | 39 | 1024.3 |
| 20260902161537 | 72 | 238 | 12.0 | 20.0 | 0.00 | 0.00 | 0.00 | 38 | 1024.3 |
| 20260902161023 | 73 | 255 | 13.0 | 20.0 | 0.00 | 0.00 | 0.00 | 38 | 1024.2 |
| 20260902160521 | 73 | 256 | 12.0 | 17.0 | 0.00 | 0.00 | 0.00 | 37 | 1024.3 |
| 20260902160034 | 72 | 229 | 8.0 | 16.0 | 0.00 | 0.00 | 0.00 | 39 | 1024.2 |
| 20260902155520 | 72 | 181 | 9.0 | 16.0 | 0.00 | 0.00 | 0.00 | 40 | 1024.3 |
| 20260902155022 | 71 | 225 | 9.0 | 15.0 | 0.00 | 0.00 | 0.00 | 42 | 1024.3 |
| 20260902154536 | 71 | 245 | 8.0 | 17.0 | 0.00 | 0.00 | 0.00 | 42 | 1024.2 |
| 20260902154017 | 71 | 235 | 12.0 | 17.0 | 0.00 | 0.00 | 0.00 | 41 | 1024.3 |
| 20260902153519 | 71 | 222 | 11.0 | 16.0 | 0.00 | 0.00 | 0.00 | 40 | 1024.4 |
| 20260902153037 | 71 | 220 | 7.0 | 16.0 | 0.00 | 0.00 | 0.00 | 42 | 1024.3 |
| 20260902152519 | 71 | 196 | 5.0 | 10.0 | 0.00 | 0.00 | 0.00 | 46 | 1024.4 |
| 20260902152020 | 71 | 137 | 6.0 | 13.0 | 0.00 | 0.00 | 0.00 | 46 | 1024.4 |
| 20260902151542 | 71 | 160 | 4.0 | 13.0 | 0.00 | 0.00 | 0.00 | 46 | 1024.4 |
| 20260902151018 | 71 | 233 | 7.0 | 11.0 | 0.00 | 0.00 | 0.00 | 46 | 1024.3 |
| 20260902150518 | 70 | 195 | 7.0 | 12.0 | 0.00 | 0.00 | 0.00 | 47 | 1024.4 |
| 20260902150043 | 70 | 150 | 9.0 | 12.0 | 0.00 | 0.00 | 0.00 | 47 | 1024.4 |
| 20260902145521 | 70 | 186 | 6.0 | 12.0 | 0.00 | 0.00 | 0.00 | 48 | 1024.4 |
| 20260902145018 | 70 | 194 | 8.0 | 12.0 | 0.00 | 0.00 | 0.00 | 49 | 1024.4 |
| 20260902144543 | 69 | 221 | 6.0 | 13.0 | 0.00 | 0.00 | 0.00 | 50 | 1024.4 |
| 20260902144019 | 69 | 193 | 8.0 | 13.0 | 0.00 | 0.00 | 0.00 | 50 | 1024.2 |
| 20260902143519 | 68 | 166 | 6.0 | 9.0 | 0.00 | 0.00 | 0.00 | 51 | 1024.2 |
| 20260902143038 | 67 | 161 | 4.0 | 7.0 | 0.00 | 0.00 | 0.00 | 52 | 1024.3 |
| 20260902142519 | 66 | 180 | 2.0 | 5.0 | 0.00 | 0.00 | 0.00 | 53 | 1024.3 |
| 20260902142020 | 65 | 168 | 2.0 | 4.0 | 0.00 | 0.00 | 0.00 | 54 | 1024.3 |
| 20260902141539 | 64 | 0 | 0.0 | 4.0 | 0.00 | 0.00 | 0.00 | 56 | 1024.3 |
| 20260902141020 | 64 | 96 | 1.0 | 4.0 | 0.00 | 0.00 | 0.00 | 57 | 1024.4 |
| 20260902140520 | 62 | 65 | 2.0 | 6.0 | 0.00 | 0.00 | 0.00 | 59 | 1024.4 |
| 20260902140039 | 61 | 78 | 4.0 | 6.0 | 0.00 | 0.00 | 0.00 | 60 | 1024.3 |
| 20260902135519 | 61 | 70 | 4.0 | 6.0 | 0.00 | 0.00 | 0.00 | 60 | 1024.3 |
| 20260902135019 | 61 | 79 | 4.0 | 6.0 | 0.00 | 0.00 | 0.00 | 60 | 1024.4 |
| 20260902134542 | 60 | 73 | 4.0 | 6.0 | 0.00 | 0.00 | 0.00 | 61 | 1024.3 |
| 20260902134020 | 60 | 86 | 5.0 | 6.0 | 0.00 | 0.00 | 0.00 | 62 | 1024.2 |
| 20260902133518 | 59 | 108 | 4.0 | 6.0 | 0.00 | 0.00 | 0.00 | 62 | 1024.2 |
| 20260902133035 | 59 | 102 | 3.0 | 6.0 | 0.00 | 0.00 | 0.00 | 63 | 1024.3 |
| 20260902132517 | 58 | 90 | 4.0 | 6.0 | 0.00 | 0.00 | 0.00 | 64 | 1024.4 |
| 20260902132018 | 57 | 105 | 5.0 | 6.0 | 0.00 | 0.00 | 0.00 | 64 | 1024.1 |
| 20260902131540 | 57 | 91 | 4.0 | 6.0 | 0.00 | 0.00 | 0.00 | 65 | 1024.2 |
| 20260902131020 | 56 | 101 | 4.0 | 6.0 | 0.00 | 0.00 | 0.00 | 67 | 1024.1 |
| 20260902130518 | 56 | 87 | 4.0 | 6.0 | 0.00 | 0.00 | 0.00 | 67 | 1024.2 |
| 20260902130037 | 55 | 96 | 3.0 | 6.0 | 0.00 | 0.00 | 0.00 | 68 | 1024.2 |
| 20260902125522 | 55 | 82 | 5.0 | 6.0 | 0.00 | 0.00 | 0.00 | 68 | 1024.1 |
| 20260902125020 | 55 | 99 | 4.0 | 7.0 | 0.00 | 0.00 | 0.00 | 68 | 1024.2 |
| 20260902124537 | 55 | 87 | 5.0 | 7.0 | 0.00 | 0.00 | 0.00 | 68 | 1024.1 |
| 20260902124017 | 55 | 83 | 5.0 | 7.0 | 0.00 | 0.00 | 0.00 | 68 | 1024.1 |
| 20260902123521 | 55 | 86 | 4.0 | 5.0 | 0.00 | 0.00 | 0.00 | 68 | 1024.1 |
| 20260902123056 | 55 | 84 | 4.0 | 5.0 | 0.00 | 0.00 | 0.00 | 67 | 1024.0 |
| 20260902122518 | 56 | 79 | 4.0 | 6.0 | 0.00 | 0.00 | 0.00 | 67 | 1024.0 |
| 20260902122020 | 55 | 98 | 3.0 | 6.0 | 0.00 | 0.00 | 0.00 | 68 | 1023.9 |
| 20260902121550 | 55 | 86 | 4.0 | 6.0 | 0.00 | 0.00 | 0.00 | 68 | 1023.8 |
| 20260902121017 | 55 | 86 | 4.0 | 6.0 | 0.00 | 0.00 | 0.00 | 69 | 1023.9 |
| 20260902120518 | 55 | 77 | 4.0 | 6.0 | 0.00 | 0.00 | 0.00 | 69 | 1023.9 |
| 20260902120044 | 55 | 103 | 5.0 | 7.0 | 0.00 | 0.00 | 0.00 | 68 | 1023.9 |
| 20260902115519 | 55 | 82 | 5.0 | 8.0 | 0.00 | 0.00 | 0.00 | 68 | 1023.9 |
| 20260902115019 | 55 | 93 | 6.0 | 8.0 | 0.00 | 0.00 | 0.00 | 68 | 1023.8 |
| 20260902114536 | 55 | 90 | 5.0 | 8.0 | 0.00 | 0.00 | 0.00 | 68 | 1023.7 |
| 20260902114017 | 56 | 91 | 6.0 | 8.0 | 0.00 | 0.00 | 0.00 | 68 | 1023.7 |
| 20260902113521 | 55 | 90 | 5.0 | 8.0 | 0.00 | 0.00 | 0.00 | 69 | 1023.7 |
| 20260902113037 | 55 | 84 | 6.0 | 8.0 | 0.00 | 0.00 | 0.00 | 69 | 1023.6 |
| 20260902112518 | 55 | 99 | 5.0 | 8.0 | 0.00 | 0.00 | 0.00 | 69 | 1023.5 |
| 20260902112024 | 55 | 113 | 4.0 | 6.0 | 0.00 | 0.00 | 0.00 | 70 | 1023.5 |
| 20260902111541 | 56 | 98 | 3.0 | 4.0 | 0.00 | 0.00 | 0.00 | 69 | 1023.5 |
| 20260902111018 | 56 | 103 | 2.0 | 4.0 | 0.00 | 0.00 | 0.00 | 68 | 1023.4 |
| 20260902110518 | 56 | 110 | 2.0 | 5.0 | 0.00 | 0.00 | 0.00 | 69 | 1023.5 |
| 20260902110037 | 55 | 0 | 2.0 | 6.0 | 0.00 | 0.00 | 0.00 | 71 | 1023.5 |
| 20260902105519 | 55 | 93 | 4.0 | 6.0 | 0.00 | 0.00 | 0.00 | 72 | 1023.4 |
| 20260902105020 | 56 | 79 | 4.0 | 6.0 | 0.00 | 0.00 | 0.00 | 70 | 1023.4 |
| 20260902104539 | 58 | 89 | 3.0 | 5.0 | 0.00 | 0.00 | 0.00 | 65 | 1023.5 |
| 20260902104017 | 58 | 123 | 4.0 | 7.0 | 0.00 | 0.00 | 0.00 | 64 | 1023.6 |
| 20260902103518 | 59 | 122 | 4.0 | 7.0 | 0.00 | 0.00 | 0.00 | 64 | 1023.6 |
| 20260902103036 | 59 | 139 | 4.0 | 8.0 | 0.00 | 0.00 | 0.00 | 63 | 1023.6 |
| 20260902102519 | 59 | 131 | 5.0 | 9.0 | 0.00 | 0.00 | 0.00 | 63 | 1023.6 |
| 20260902102018 | 59 | 145 | 5.0 | 10.0 | 0.00 | 0.00 | 0.00 | 62 | 1023.6 |
| 20260902101536 | 60 | 120 | 5.0 | 10.0 | 0.00 | 0.00 | 0.00 | 62 | 1023.6 |
| 20260902101025 | 60 | 129 | 5.0 | 10.0 | 0.00 | 0.00 | 0.00 | 62 | 1023.6 |
| 20260902100517 | 60 | 168 | 5.0 | 9.0 | 0.00 | 0.00 | 0.00 | 61 | 1023.6 |
| 20260902100038 | 60 | 130 | 5.0 | 8.0 | 0.00 | 0.00 | 0.00 | 61 | 1023.6 |
| 20260902095518 | 60 | 116 | 5.0 | 8.0 | 0.00 | 0.00 | 0.00 | 61 | 1023.7 |
| 20260902095019 | 59 | 135 | 4.0 | 6.0 | 0.00 | 0.00 | 0.00 | 63 | 1023.6 |
| 20260902094537 | 58 | 107 | 4.0 | 7.0 | 0.00 | 0.00 | 0.00 | 64 | 1023.6 |
| 20260902094018 | 58 | 75 | 5.0 | 7.0 | 0.00 | 0.00 | 0.00 | 64 | 1023.6 |
| 20260902093521 | 58 | 104 | 5.0 | 11.0 | 0.00 | 0.00 | 0.00 | 65 | 1023.6 |
| 20260902093037 | 58 | 98 | 6.0 | 12.0 | 0.00 | 0.00 | 0.00 | 65 | 1023.6 |
| 20260902092520 | 58 | 117 | 7.0 | 12.0 | 0.00 | 0.00 | 0.00 | 64 | 1023.8 |
| 20260902092021 | 58 | 112 | 9.0 | 12.0 | 0.00 | 0.00 | 0.00 | 63 | 1023.8 |
| 20260902091534 | 58 | 109 | 10.0 | 12.0 | 0.00 | 0.00 | 0.00 | 63 | 1023.8 |
| 20260902091018 | 57 | 107 | 7.0 | 9.0 | 0.00 | 0.00 | 0.00 | 66 | 1023.7 |
| 20260902090516 | 57 | 85 | 7.0 | 9.0 | 0.00 | 0.00 | 0.00 | 66 | 1023.5 |
| 20260902090035 | 57 | 90 | 5.0 | 9.0 | 0.00 | 0.00 | 0.00 | 66 | 1023.6 |
| 20260902085517 | 57 | 74 | 6.0 | 9.0 | 0.00 | 0.00 | 0.00 | 66 | 1023.8 |
| 20260902085021 | 57 | 94 | 5.0 | 9.0 | 0.00 | 0.00 | 0.00 | 66 | 1024.0 |
| 20260902084538 | 57 | 148 | 6.0 | 10.0 | 0.00 | 0.00 | 0.00 | 65 | 1024.1 |
| 20260902084020 | 57 | 88 | 7.0 | 10.0 | 0.00 | 0.00 | 0.00 | 67 | 1023.9 |
| 20260902083518 | 57 | 115 | 6.0 | 10.0 | 0.00 | 0.00 | 0.00 | 69 | 1023.8 |
| 20260902083034 | 57 | 115 | 7.0 | 10.0 | 0.00 | 0.00 | 0.00 | 68 | 1023.9 |
| 20260902082520 | 57 | 115 | 6.0 | 9.0 | 0.00 | 0.00 | 0.00 | 68 | 1024.0 |
| 20260902082020 | 57 | 111 | 6.0 | 9.0 | 0.00 | 0.00 | 0.00 | 69 | 1024.1 |
| 20260902081538 | 57 | 126 | 6.0 | 9.0 | 0.00 | 0.00 | 0.00 | 73 | 1024.0 |
| 20260902081018 | 57 | 115 | 6.0 | 9.0 | 0.00 | 0.00 | 0.00 | 76 | 1024.1 |
| 20260902080522 | 57 | 133 | 6.0 | 9.0 | 0.00 | 0.00 | 0.00 | 76 | 1024.1 |
| 20260902080035 | 58 | 131 | 5.0 | 8.0 | 0.00 | 0.00 | 0.00 | 75 | 1024.3 |
| 20260902075520 | 58 | 95 | 6.0 | 8.0 | 0.00 | 0.00 | 0.00 | 75 | 1024.1 |
| 20260902075020 | 58 | 89 | 5.0 | 7.0 | 0.00 | 0.00 | 0.00 | 75 | 1024.3 |
| 20260902074538 | 58 | 110 | 4.0 | 6.0 | 0.00 | 0.00 | 0.00 | 75 | 1024.3 |
| 20260902074022 | 58 | 96 | 4.0 | 9.0 | 0.00 | 0.00 | 0.00 | 74 | 1024.3 |
| 20260902073520 | 58 | 102 | 6.0 | 9.0 | 0.00 | 0.00 | 0.00 | 74 | 1024.3 |
| 20260902073036 | 58 | 119 | 5.0 | 6.0 | 0.00 | 0.00 | 0.00 | 71 | 1024.4 |
| 20260902072518 | 60 | 73 | 4.0 | 5.0 | 0.00 | 0.00 | 0.00 | 65 | 1024.3 |
| 20260902072018 | 62 | 111 | 1.0 | 6.0 | 0.00 | 0.00 | 0.00 | 65 | 1024.4 |
| 20260902071537 | 62 | 266 | 2.0 | 6.0 | 0.00 | 0.00 | 0.00 | 62 | 1024.4 |
| 20260902071020 | 62 | 258 | 2.0 | 12.0 | 0.00 | 0.00 | 0.00 | 61 | 1024.5 |
| 20260902070521 | 62 | 239 | 3.0 | 12.0 | 0.00 | 0.00 | 0.00 | 61 | 1024.5 |
| 20260902070037 | 63 | 219 | 6.0 | 12.0 | 0.00 | 0.00 | 0.00 | 56 | 1024.8 |
| 20260902065524 | 61 | 222 | 5.0 | 12.0 | 0.00 | 0.00 | 0.00 | 55 | 1024.8 |
| 20260902065018 | 60 | 141 | 2.0 | 4.0 | 0.00 | 0.00 | 0.00 | 54 | 1024.8 |
| 20260902064537 | 60 | 123 | 3.0 | 5.0 | 0.00 | 0.00 | 0.00 | 53 | 1024.4 |
| 20260902064019 | 61 | 125 | 3.0 | 5.0 | 0.00 | 0.00 | 0.00 | 53 | 1024.3 |
| 20260902063518 | 60 | 134 | 4.0 | 6.0 | 0.00 | 0.00 | 0.00 | 53 | 1024.3 |
| 20260902063052 | 60 | 120 | 3.0 | 6.0 | 0.00 | 0.00 | 0.00 | 54 | 1024.3 |
| 20260902062519 | 60 | 140 | 3.0 | 8.0 | 0.00 | 0.00 | 0.00 | 54 | 1024.3 |
| 20260902062019 | 60 | 147 | 4.0 | 8.0 | 0.00 | 0.00 | 0.00 | 54 | 1024.2 |
| 20260902061535 | 60 | 119 | 5.0 | 7.0 | 0.00 | 0.00 | 0.00 | 55 | 1024.1 |
| 20260902061023 | 59 | 111 | 5.0 | 7.0 | 0.00 | 0.00 | 0.00 | 55 | 1024.2 |
| 20260902060520 | 59 | 138 | 4.0 | 8.0 | 0.00 | 0.00 | 0.00 | 56 | 1024.1 |
| 20260902060037 | 59 | 129 | 5.0 | 8.0 | 0.00 | 0.00 | 0.00 | 56 | 1024.1 |
| 20260902055517 | 58 | 117 | 5.0 | 8.0 | 0.00 | 0.00 | 0.00 | 57 | 1024.1 |
| 20260902055019 | 58 | 147 | 5.0 | 8.0 | 0.00 | 0.00 | 0.00 | 57 | 1023.9 |
| 20260902054539 | 58 | 109 | 5.0 | 8.0 | 0.00 | 0.00 | 0.00 | 58 | 1024.0 |
| 20260902054023 | 58 | 117 | 5.0 | 8.0 | 0.00 | 0.00 | 0.00 | 58 | 1023.9 |
| 20260902053520 | 58 | 130 | 5.0 | 8.0 | 0.00 | 0.00 | 0.00 | 58 | 1023.9 |
| 20260902053038 | 58 | 121 | 4.0 | 6.0 | 0.00 | 0.00 | 0.00 | 59 | 1023.8 |
| 20260902052517 | 58 | 122 | 4.0 | 6.0 | 0.00 | 0.00 | 0.00 | 59 | 1023.9 |
| 20260902052020 | 57 | 119 | 4.0 | 6.0 | 0.00 | 0.00 | 0.00 | 61 | 1023.9 |
| 20260902051536 | 56 | 120 | 4.0 | 6.0 | 0.00 | 0.00 | 0.00 | 61 | 1023.8 |
| 20260902051021 | 56 | 121 | 3.0 | 5.0 | 0.00 | 0.00 | 0.00 | 62 | 1023.9 |
| 20260902050518 | 55 | 120 | 2.0 | 4.0 | 0.00 | 0.00 | 0.00 | 64 | 1023.8 |
| 20260902050056 | 55 | 0 | 1.0 | 2.0 | 0.00 | 0.00 | 0.00 | 64 | 1023.8 |
| 20260902045525 | 55 | 90 | 0.0 | 3.0 | 0.00 | 0.00 | 0.00 | 62 | 1023.7 |
| 20260902045020 | 56 | 122 | 1.0 | 4.0 | 0.00 | 0.00 | 0.00 | 61 | 1023.7 |
| 20260902044539 | 56 | 115 | 1.0 | 6.0 | 0.00 | 0.00 | 0.00 | 60 | 1023.8 |
| 20260902044019 | 57 | 122 | 3.0 | 6.0 | 0.00 | 0.00 | 0.00 | 60 | 1023.8 |
| 20260902043519 | 56 | 122 | 4.0 | 6.0 | 0.00 | 0.00 | 0.00 | 61 | 1023.9 |
| 20260902043044 | 56 | 111 | 3.0 | 5.0 | 0.00 | 0.00 | 0.00 | 61 | 1024.0 |
| 20260902042521 | 55 | 127 | 3.0 | 5.0 | 0.00 | 0.00 | 0.00 | 62 | 1024.0 |
| 20260902042016 | 55 | 118 | 4.0 | 5.0 | 0.00 | 0.00 | 0.00 | 64 | 1023.9 |
| 20260902041536 | 55 | 92 | 3.0 | 4.0 | 0.00 | 0.00 | 0.00 | 63 | 1023.9 |
| 20260902041018 | 56 | 74 | 2.0 | 5.0 | 0.00 | 0.00 | 0.00 | 62 | 1023.8 |
| 20260902040520 | 56 | 108 | 3.0 | 6.0 | 0.00 | 0.00 | 0.00 | 61 | 1023.8 |
| 20260902040042 | 56 | 109 | 2.0 | 6.0 | 0.00 | 0.00 | 0.00 | 60 | 1023.7 |
| 20260902035520 | 55 | 108 | 4.0 | 6.0 | 0.00 | 0.00 | 0.00 | 63 | 1023.7 |
| 20260902035020 | 55 | 84 | 3.0 | 5.0 | 0.00 | 0.00 | 0.00 | 64 | 1023.8 |
| 20260902034538 | 55 | 90 | 3.0 | 5.0 | 0.00 | 0.00 | 0.00 | 65 | 1023.6 |
| 20260902034017 | 55 | 98 | 4.0 | 6.0 | 0.00 | 0.00 | 0.00 | 64 | 1023.5 |
| 20260902033519 | 55 | 95 | 4.0 | 6.0 | 0.00 | 0.00 | 0.00 | 65 | 1023.5 |
| 20260902033037 | 55 | 97 | 5.0 | 7.0 | 0.00 | 0.00 | 0.00 | 64 | 1023.6 |
| 20260902032519 | 55 | 100 | 5.0 | 7.0 | 0.00 | 0.00 | 0.00 | 62 | 1023.4 |
| 20260902032023 | 56 | 92 | 5.0 | 7.0 | 0.00 | 0.00 | 0.00 | 62 | 1023.6 |
| 20260902031538 | 56 | 101 | 5.0 | 7.0 | 0.00 | 0.00 | 0.00 | 60 | 1023.5 |
| 20260902031022 | 57 | 0 | 2.0 | 5.0 | 0.00 | 0.00 | 0.00 | 59 | 1023.5 |
| 20260902030518 | 57 | 96 | 3.0 | 5.0 | 0.00 | 0.00 | 0.00 | 58 | 1023.6 |
| 20260902030039 | 59 | 70 | 2.0 | 5.0 | 0.00 | 0.00 | 0.00 | 54 | 1023.7 |
| 20260902025518 | 61 | 77 | 1.0 | 3.0 | 0.00 | 0.00 | 0.00 | 50 | 1023.5 |
| 20260902025018 | 61 | 89 | 1.0 | 3.0 | 0.00 | 0.00 | 0.00 | 47 | 1023.4 |
| 20260902024552 | 62 | 117 | 1.0 | 2.0 | 0.00 | 0.00 | 0.00 | 46 | 1023.4 |
| 20260902024019 | 63 | 124 | 1.0 | 2.0 | 0.00 | 0.00 | 0.00 | 44 | 1023.4 |
| 20260902023520 | 64 | 0 | 0.0 | 2.0 | 0.00 | 0.00 | 0.00 | 42 | 1023.2 |
| 20260902023037 | 65 | 168 | 0.0 | 4.0 | 0.00 | 0.00 | 0.00 | 41 | 1023.2 |
| 20260902022519 | 66 | 139 | 0.0 | 4.0 | 0.00 | 0.00 | 0.00 | 40 | 1023.1 |
| 20260902022024 | 66 | 216 | 2.0 | 4.0 | 0.00 | 0.00 | 0.00 | 40 | 1023.1 |
| 20260902021535 | 67 | 198 | 2.0 | 4.0 | 0.00 | 0.00 | 0.00 | 39 | 1023.0 |
| 20260902021024 | 67 | 224 | 3.0 | 5.0 | 0.00 | 0.00 | 0.00 | 39 | 1023.0 |
| 20260902020518 | 67 | 226 | 3.0 | 5.0 | 0.00 | 0.00 | 0.00 | 38 | 1023.0 |
| 20260902020039 | 67 | 217 | 3.0 | 6.0 | 0.00 | 0.00 | 0.00 | 38 | 1023.0 |
| 20260902015517 | 68 | 219 | 4.0 | 9.0 | 0.00 | 0.00 | 0.00 | 38 | 1023.0 |
| 20260902015020 | 68 | 238 | 5.0 | 9.0 | 0.00 | 0.00 | 0.00 | 37 | 1023.0 |
| 20260902014540 | 68 | 220 | 6.0 | 10.0 | 0.00 | 0.00 | 0.00 | 37 | 1023.0 |
| 20260902014020 | 69 | 279 | 7.0 | 12.0 | 0.00 | 0.00 | 0.00 | 36 | 1023.0 |
| 20260902013519 | 69 | 228 | 8.0 | 12.0 | 0.00 | 0.00 | 0.00 | 35 | 1023.0 |
| 20260902013042 | 70 | 250 | 6.0 | 13.0 | 0.00 | 0.00 | 0.00 | 34 | 1023.0 |
| 20260902012518 | 70 | 236 | 8.0 | 13.0 | 0.00 | 0.00 | 0.00 | 34 | 1023.0 |
| 20260902012018 | 71 | 229 | 10.0 | 13.0 | 0.00 | 0.00 | 0.00 | 34 | 1023.0 |
| 20260902011540 | 71 | 250 | 7.0 | 14.0 | 0.00 | 0.00 | 0.00 | 33 | 1023.0 |
| 20260902011024 | 72 | 265 | 9.0 | 14.0 | 0.00 | 0.00 | 0.00 | 33 | 1023.0 |
| 20260902010520 | 72 | 258 | 8.0 | 16.0 | 0.00 | 0.00 | 0.00 | 32 | 1023.0 |
| 20260902010039 | 73 | 255 | 12.0 | 16.0 | 0.00 | 0.00 | 0.00 | 32 | 1022.9 |
| 20260902005518 | 73 | 270 | 10.0 | 16.0 | 0.00 | 0.00 | 0.00 | 31 | 1022.8 |
| 20260902005018 | 74 | 258 | 11.0 | 16.0 | 0.00 | 0.00 | 0.00 | 29 | 1022.8 |
| 20260902004538 | 74 | 264 | 9.0 | 16.0 | 0.00 | 0.00 | 0.00 | 28 | 1022.9 |
| 20260902004019 | 74 | 243 | 11.0 | 16.0 | 0.00 | 0.00 | 0.00 | 27 | 1022.8 |
| 20260902003520 | 74 | 231 | 10.0 | 16.0 | 0.00 | 0.00 | 0.00 | 27 | 1022.8 |
| 20260902003040 | 74 | 252 | 11.0 | 16.0 | 0.00 | 0.00 | 0.00 | 27 | 1022.8 |
| 20260902002520 | 75 | 253 | 11.0 | 17.0 | 0.00 | 0.00 | 0.00 | 25 | 1022.8 |
| 20260902002020 | 75 | 231 | 10.0 | 19.0 | 0.00 | 0.00 | 0.00 | 25 | 1022.8 |
| 20260902001537 | 75 | 244 | 11.0 | 19.0 | 0.00 | 0.00 | 0.00 | 25 | 1022.8 |
| 20260902001020 | 75 | 223 | 12.0 | 19.0 | 0.00 | 0.00 | 0.00 | 25 | 1022.7 |
| 20260902000523 | 75 | 240 | 12.0 | 18.0 | 0.00 | 0.00 | 0.00 | 27 | 1022.6 |
| 20260902000039 | 76 | 260 | 11.0 | 17.0 | 0.00 | 0.00 | 0.00 | 28 | 1022.6 |
| 20260901235519 | 76 | 172 | 9.0 | 20.0 | 0.00 | 0.00 | 0.00 | 27 | 1022.5 |
| 20260901235018 | 75 | 241 | 9.0 | 21.0 | 0.00 | 0.00 | 0.00 | 29 | 1022.6 |
| 20260901234537 | 76 | 262 | 14.0 | 21.0 | 0.00 | 0.00 | 0.00 | 28 | 1022.6 |
| 20260901234017 | 76 | 253 | 10.0 | 18.0 | 0.00 | 0.00 | 0.00 | 29 | 1022.6 |
| 20260901233518 | 76 | 236 | 11.0 | 18.0 | 0.00 | 0.00 | 0.00 | 29 | 1022.8 |
| 20260901233037 | 76 | 263 | 10.0 | 18.0 | 0.00 | 0.00 | 0.00 | 30 | 1022.7 |
| 20260901232518 | 76 | 284 | 10.0 | 18.0 | 0.00 | 0.00 | 0.00 | 30 | 1022.7 |
| 20260901232023 | 76 | 250 | 9.0 | 20.0 | 0.00 | 0.00 | 0.00 | 31 | 1022.8 |
| 20260901231535 | 76 | 243 | 10.0 | 20.0 | 0.00 | 0.00 | 0.00 | 30 | 1022.8 |
| 20260901231020 | 76 | 237 | 11.0 | 20.0 | 0.00 | 0.00 | 0.00 | 31 | 1022.8 |
| 20260901230518 | 75 | 240 | 13.0 | 20.0 | 0.00 | 0.00 | 0.00 | 32 | 1022.8 |
| 20260901230055 | 77 | 248 | 14.0 | 20.0 | 0.00 | 0.00 | 0.00 | 31 | 1022.8 |
| 20260901225520 | 76 | 214 | 12.0 | 20.0 | 0.00 | 0.00 | 0.00 | 32 | 1022.8 |
| 20260901225020 | 77 | 248 | 14.0 | 20.0 | 0.00 | 0.00 | 0.00 | 32 | 1022.8 |
| 20260901224538 | 76 | 224 | 14.0 | 22.0 | 0.00 | 0.00 | 0.00 | 32 | 1022.7 |
| 20260901224018 | 76 | 217 | 14.0 | 25.0 | 0.00 | 0.00 | 0.00 | 31 | 1022.8 |
| 20260901223524 | 76 | 255 | 12.0 | 25.0 | 0.00 | 0.00 | 0.00 | 33 | 1022.7 |
| 20260901223044 | 76 | 255 | 13.0 | 19.0 | 0.00 | 0.00 | 0.00 | 33 | 1022.6 |
| 20260901222518 | 77 | 264 | 13.0 | 21.0 | 0.00 | 0.00 | 0.00 | 32 | 1022.8 |
| 20260901222021 | 77 | 248 | 12.0 | 21.0 | 0.00 | 0.00 | 0.00 | 34 | 1022.8 |
| 20260901221538 | 77 | 244 | 14.0 | 22.0 | 0.00 | 0.00 | 0.00 | 32 | 1022.8 |
| 20260901221021 | 77 | 269 | 13.0 | 22.0 | 0.00 | 0.00 | 0.00 | 34 | 1022.8 |
| 20260901220517 | 77 | 250 | 15.0 | 22.0 | 0.00 | 0.00 | 0.00 | 33 | 1022.9 |
| 20260901220057 | 77 | 190 | 12.0 | 22.0 | 0.00 | 0.00 | 0.00 | 34 | 1022.9 |
| 20260901215519 | 76 | 270 | 11.0 | 20.0 | 0.00 | 0.01 | 0.00 | 36 | 1023.2 |
| 20260901215020 | 77 | 279 | 10.0 | 20.0 | 0.00 | 0.01 | 0.00 | 35 | 1023.4 |
| 20260901214538 | 78 | 246 | 13.0 | 27.0 | 0.00 | 0.01 | 0.00 | 33 | 1023.2 |
| 20260901214024 | 77 | 276 | 12.0 | 27.0 | 0.00 | 0.01 | 0.00 | 33 | 1023.1 |
| 20260901213518 | 77 | 222 | 9.0 | 19.0 | 0.00 | 0.01 | 0.00 | 34 | 1023.1 |
| 20260901213044 | 78 | 249 | 12.0 | 26.0 | 0.00 | 0.01 | 0.00 | 34 | 1023.4 |
| 20260901212518 | 78 | 242 | 14.0 | 26.0 | 0.00 | 0.01 | 0.00 | 33 | 1023.2 |
| 20260901212020 | 77 | 280 | 8.0 | 20.0 | 0.00 | 0.01 | 0.00 | 35 | 1023.3 |
| 20260901211535 | 76 | 248 | 7.0 | 17.0 | 0.00 | 0.01 | 0.00 | 37 | 1023.4 |
| 20260901211017 | 75 | 236 | 10.0 | 21.0 | 0.00 | 0.01 | 0.00 | 38 | 1023.6 |
| 20260901210517 | 76 | 284 | 14.0 | 21.0 | 0.00 | 0.01 | 0.00 | 39 | 1023.6 |
| 20260901210040 | 76 | 258 | 13.0 | 19.0 | 0.00 | 0.01 | 0.00 | 37 | 1023.8 |
| 20260901205520 | 78 | 259 | 11.0 | 19.0 | 0.00 | 0.07 | 0.00 | 37 | 1023.8 |
| 20260901205018 | 76 | 264 | 13.0 | 19.0 | 0.00 | 0.07 | 0.00 | 37 | 1023.9 |
| 20260901204542 | 75 | 225 | 12.0 | 18.0 | 0.00 | 0.07 | 0.00 | 36 | 1024.0 |
| 20260901204017 | 75 | 242 | 4.0 | 11.0 | 0.00 | 0.07 | 0.00 | 38 | 1023.8 |
| 20260901203520 | 75 | 290 | 4.0 | 13.0 | 0.00 | 0.07 | 0.00 | 38 | 1023.9 |
| 20260901203041 | 76 | 266 | 7.0 | 18.0 | 0.00 | 0.07 | 0.00 | 38 | 1024.1 |
| 20260901202519 | 76 | 269 | 9.0 | 18.0 | 0.00 | 0.07 | 0.00 | 38 | 1024.1 |
| 20260901202018 | 75 | 274 | 8.0 | 13.0 | 0.00 | 0.07 | 0.00 | 42 | 1024.0 |
| 20260901201543 | 74 | 277 | 8.0 | 17.0 | 0.00 | 0.07 | 0.00 | 40 | 1024.1 |
| 20260901201020 | 76 | 262 | 9.0 | 17.0 | 0.00 | 0.07 | 0.00 | 40 | 1024.3 |
| 20260901200518 | 75 | 255 | 9.0 | 17.0 | 0.00 | 0.07 | 0.00 | 42 | 1024.1 |
| 20260901200041 | 75 | 308 | 6.0 | 16.0 | 0.00 | 0.07 | 0.00 | 41 | 1024.2 |
| 20260901195520 | 75 | 276 | 11.0 | 22.0 | 0.00 | 0.08 | 0.00 | 41 | 1024.2 |
| 20260901195019 | 75 | 288 | 10.0 | 22.0 | 0.00 | 0.08 | 0.00 | 42 | 1024.1 |
| 20260901194540 | 76 | 227 | 8.0 | 19.0 | 0.00 | 0.08 | 0.00 | 40 | 1024.2 |
| 20260901194020 | 75 | 227 | 10.0 | 16.0 | 0.00 | 0.08 | 0.00 | 40 | 1024.1 |
| 20260901193516 | 75 | 255 | 7.0 | 15.0 | 0.00 | 0.08 | 0.00 | 41 | 1024.3 |
| 20260901193039 | 75 | 275 | 6.0 | 15.0 | 0.00 | 0.08 | 0.00 | 42 | 1024.4 |
| 20260901192518 | 74 | 245 | 9.0 | 14.0 | 0.00 | 0.08 | 0.00 | 46 | 1024.5 |
| 20260901192019 | 72 | 319 | 5.0 | 16.0 | 0.00 | 0.08 | 0.00 | 48 | 1024.5 |
| 20260901191546 | 73 | 314 | 10.0 | 16.0 | 0.00 | 0.08 | 0.00 | 46 | 1024.6 |
| 20260901191021 | 73 | 313 | 6.0 | 13.0 | 0.00 | 0.08 | 0.00 | 47 | 1024.6 |
| 20260901190521 | 71 | 300 | 2.0 | 12.0 | 0.00 | 0.08 | 0.00 | 49 | 1024.8 |
| 20260901190042 | 71 | 297 | 7.0 | 16.0 | 0.00 | 0.08 | 0.00 | 50 | 1024.9 |
| 20260901185517 | 71 | 311 | 10.0 | 16.0 | 0.00 | 0.09 | 0.00 | 48 | 1024.8 |
| 20260901185020 | 71 | 302 | 9.0 | 14.0 | 0.00 | 0.09 | 0.00 | 48 | 1024.8 |
| 20260901184604 | 70 | 314 | 8.0 | 14.0 | 0.00 | 0.09 | 0.00 | 52 | 1024.9 |
| 20260901184023 | 70 | 285 | 4.0 | 12.0 | 0.00 | 0.09 | 0.00 | 51 | 1025.1 |
| 20260901183526 | 71 | 302 | 8.0 | 12.0 | 0.00 | 0.09 | 0.00 | 51 | 1025.0 |
| 20260901183038 | 71 | 315 | 6.0 | 11.0 | 0.00 | 0.09 | 0.00 | 50 | 1025.1 |
| 20260901182521 | 71 | 337 | 5.0 | 17.0 | 0.00 | 0.09 | 0.00 | 52 | 1025.1 |
| 20260901182024 | 71 | 303 | 8.0 | 17.0 | 0.00 | 0.09 | 0.00 | 50 | 1025.2 |
| 20260901181551 | 71 | 304 | 11.0 | 16.0 | 0.00 | 0.09 | 0.00 | 52 | 1025.2 |